Location: Songkhla
(7.2000°N, 100.6000°E)
Time: 20:21:36
(UTC+07:00)

ISS - Pass Details

Date: 17 April 2026
Orbit: 414 x 424 km, 51.6° (Epoch: 19 May)

Event Time Altitude Azimuth Distance (km) Brightness Sun altitude
Rises 03:14:02 0° 218° (SW) 2,339 - -42.6°
Reaches altitude 10° 03:16:07 10° 219° (SW) 1,478 - -42.2°
Maximum altitude 03:19:26 78° 306° (NW) 426 - -41.4°
Drops below altitude 10° 03:22:45 10° 33° (NNE) 1,482 - -40.6°
Sets 03:24:51 0° 34° (NE) 2,345 - -40.1°
